Regional Weather Roundup
Issued by NWS Charleston, SC

Current Version | Previous Version | Graphics & Text | Print | Product List | Glossary On
Versions: 1 2 3 4 5 6 7 8 9 10 11 12 13 14 15 16 17 18 19 20 21 22 23 24 25 26 27 28 29 30 31 32 33 34 35 36 37 38 39 40 41 42 43 44 45 46 47 48 49 50
000 ASUS42 KCHS 242225 RWRCHS REGIONAL WEATHER ROUNDUP NATIONAL WEATHER SERVICE CHARLESTON SC 600 PM EDT FRI OCT 24 2014 NOTE: "FAIR" INDICATES FEW OR NO CLOUDS BELOW 12,000 FEET WITH NO SIGNIFICANT WEATHER AND/OR OBSTRUCTIONS TO VISIBILITY. NOT ALL STATIONS ARE QUALITY CONTROLLED BY THE NATIONAL WEATHER SERVICE. USE DATA WITH CAUTION...ESPECIALLY DEWPOINT OBSERVATIONS. SCZ027-030-031-034>040-042>050-242300- ...SOUTH CAROLINA... CITY SKY/WX TMP DP RH WIND PRES REMARKS N CHARLESTON PTCLDY 72 47 40 NW6 29.97S WATERFRONT PRK N/A 72 N/A N/A S6 N/A FORT JOHNSON NOT AVBL JOHNS ISLAND CLEAR 68 52 56 CALM 29.98R PINOPOLIS NOT AVBL MONCKS CORNER FAIR 66 55 68 CALM 29.97S SUMMERVILLE FAIR 68 55 64 CALM 29.98R BEAUFORT MCAS CLEAR 72 45 37 W3 29.97S BEAUFORT ARPT FAIR 64 54 68 S3 29.97S HAZE HILTON HEAD IS CLEAR 70 48 46 SE3 29.98F GEORGETOWN NOT AVBL WALTERBORO CLEAR 70 48 46 CALM 29.99R ORANGEBURG PTCLDY 70 44 39 NW3 29.98R BARNWELL FAIR 73 45 35 NE5 29.98S AIKEN FAIR 68 50 52 CALM 30.01F MANNING FAIR 66 59 77 CALM 29.98R KINGSTREE NOT AVBL COLUMBIA CLOUDY 69 45 41 CALM 29.98F SUMTER CLOUDY 67 47 47 N6 29.97S FLORENCE PTCLDY 68 48 48 CALM 29.97S MYRTLE BEACH PTCLDY 66 50 55 S9 29.97F N MYRTLE BEACH CLEAR 66 50 56 SW6 29.97R $$ GAZ063-065-086>088-099>101-113>116-118-119-134-136>141-150-242300- ...GEORGIA... CITY SKY/WX TMP DP RH WIND PRES REMARKS SAVANNAH ARPT PTCLDY 74 44 34 N5 29.98R HUNTER AAF CLEAR 69 50 50 S3 29.96S FORT STEWART CLEAR 72 47 42 CALM 29.97R STATESBORO NOT AVBL SYLVANIA CLEAR 72 57 58 CALM 29.99S CLAXTON FAIR 66 55 68 CALM 29.99R THOMSON MOCLDY 69 57 64 NW5 30.04R AUGUSTA-BUSH MOCLDY 74 43 32 N5 29.97F AUGUSTA-DANIEL MOCLDY 74 39 28 N5 29.99S SWAINSBORO FAIR 75 46 35 MISG 29.98S VIDALIA CLEAR 72 46 40 CALM 29.99S ALMA CLEAR 72 48 42 CALM 29.97S WAYCROSS CLEAR 74 51 44 CALM 29.97S JESUP FAIR 70 54 56 CALM 29.98S BRUNSWICK CLEAR 70 48 46 E5 29.98S SAINT SIMONS CLEAR 68 50 52 NE6 29.97F $$ SCZ027-028-034-036>038-045-046-048>050-GAZ119-141-242300- ...LAKE AND SUPPLEMENTAL COASTAL OBSERVATIONS... STATION/POSITION TIME TEMP WIND PRES WAVE SWELL AIR SEA DIR/SP/G HT/PER HT/PER/DIR (UTC) (F) (DEG/KT/KT) (MB) (FT/S) (FT/S/D) UPR LAKE MARION NOT AVBL WINYAH BAY 2200 68 10/ 2 1014.0S LAKE MURRAY 2200 67 120/ 1/ 2 1014.9S ACE BASIN NERRS 2200 70 CALM 1015.0S FORT PULASKI 2200 70 140/ 2/ 4 1015.2R SAPELO ISLAND NOT AVBL $$ ANZ835-935-AMZ111-154-330-350-352-354-374-450-454-472-242300- ...C-MAN AND BUOY OBSERVATIONS... STATION/POSITION TIME TEMP WIND PRES WAVE SWELL AIR SEA DIR/SP/G HT/PER HT/PER/DIR (UTC) (F) (DEG/KT/KT) (MB) (FT/S) (FT/S/D) FOLLY BEACH CMAN 2200 68 210/ 7/ 8 1015.2F BUOY 41004 2200 68 78 330/ 6/ 8 1014.6F 3/10 3/10 BUOY 41008 2200 69 75 30/ 4/ 6 1015.1F 2/ 9 2/ 80/ 9 5E ST. MARYS GA 2200 76 N/A 2/10 2/ 60/11 FRYING PAN BUOY 2200 67 73 350/ 2/ 2 1015.4S 3/10 3/ 90/10 BUOY 41025 2200 65 310/ 12/ 16 1013.4R 3/ 6 2/ 20/ 6 CAPE LOOKOUT NC 2200 66 270/ 7/ 8 1014.1R BUOY 41002 2106 73 77 320/ 8/ 10 1014.0F 5/10 5/10 BUOY 41010 2200 75 82 30/ 10/ 16 1012.7F 3/11 2/ 50/11 BUOY 41012 NOT AVBL ST AUGUSTINE FL 2200 71 10/ 12/ 13 1014.8F CAPERS NEARSHORE NOT AVBL FRIPP NEARSHORE NOT AVBL $$

USA.gov is the U.S. government's official web portal to all federal, state and local government web resources and services.